Eastsound, WA

5:00 AM PDT on August 27, 2016 (GMT -0700)
Orcas Island

Weather History for KORS - December, 2012

Change the Weather History Date:

Saturday, December 15, 2012

  Actual Average (KBLI) Record (KBLI)
Temperature  
Mean Temperature 39 °F 38 °F  
Max Temperature 41 °F 44 °F 62 °F (1962)
Min Temperature 37 °F 32 °F 2 °F (1964)
Degree Days  
Heating Degree Days 26 27  
Month to date heating degree days 395  
Cooling Degree Days 0 0  
Month to date cooling degree days 0  
Year to date cooling degree days 42  
Moisture  
Dew Point 34 °F    
Average Humidity 82    
Maximum Humidity 93    
Minimum Humidity 70    
Precipitation  
Precipitation 0.08 in 0.13 in 1.48 in (1963)
Month to date precipitation 2.21  
Year to date precipitation 33.82  
Sea Level Pressure  
Sea Level Pressure 29.61 in    
Wind  
Wind Speed 8 mph (SSE)    
Max Wind Speed 22 mph    
Max Gust Speed 38 mph    
Visibility 9 miles    
Events Rain    
T = Trace of Precipitation, MM = Missing Value Source: NWS Daily Summary

Daily Weather History Graph

Daily Weather History Graph

Search for Another Location

Airport or City:

Trip Planner

Search our weather history database for the weather conditions in past years. The results will help you decide how hot, cold, wet, or windy it might be!

Date:

Astronomy

Dec. 15, 2012 Rise Set
Actual Time 7:58 AM PST 4:15 PM PST
Civil Twilight 7:21 AM PST 4:53 PM PST
Nautical Twilight 6:40 AM PST 5:33 PM PST
Astronomical Twilight 6:02 AM PST 6:11 PM PST
Moon 9:45 AM PST (12/15) 7:38 PM PST (12/15)
Length of Visible Light 9h 31m
Length of Day
8h 17m
Waxing Crescent, 9% of the Moon is Illuminated
Dec 15
Waxing Crescent
Dec 19
First Quarter
Dec 28
Full
Jan 4
Last Quarter
Jan 11
New

Hourly Weather History & Observations

Time (PST) Temp. Windchill Dew Point Humidity Pressure Visibility Wind Dir Wind Speed Gust Speed Precip Events Conditions
12:15 AM 39.2 °F 37.0 °F 32.0 °F 75% 29.87 in 10.0 mi ESE 3.5 mph - N/A   Overcast
12:35 AM 39.2 °F 35.9 °F 33.8 °F 81% 29.86 in 10.0 mi ESE 4.6 mph - N/A   Overcast
12:55 AM 39.2 °F 35.9 °F 33.8 °F 81% 29.85 in 10.0 mi East 4.6 mph - N/A   Overcast
1:15 AM 39.2 °F - 32.0 °F 75% 29.85 in 10.0 mi Calm Calm - N/A   Mostly Cloudy
1:35 AM 39.2 °F - 32.0 °F 75% 29.85 in 10.0 mi Calm Calm - N/A   Mostly Cloudy
1:55 AM 39.2 °F 35.0 °F 32.0 °F 75% 29.84 in 10.0 mi South 5.8 mph - N/A   Overcast
2:15 AM 39.2 °F 34.2 °F 32.0 °F 75% 29.84 in 10.0 mi SE 6.9 mph - N/A   Overcast
2:35 AM 39.2 °F 35.9 °F 32.0 °F 75% 29.83 in 10.0 mi SE 4.6 mph - N/A   Mostly Cloudy
2:55 AM 39.2 °F 35.0 °F 32.0 °F 75% 29.82 in 10.0 mi SE 5.8 mph - N/A   Partly Cloudy
3:15 AM 39.2 °F 34.2 °F 33.8 °F 81% 29.81 in 10.0 mi SSE 6.9 mph - N/A   Mostly Cloudy
3:35 AM 39.2 °F 34.2 °F 32.0 °F 75% 29.80 in 10.0 mi South 6.9 mph - N/A   Overcast
3:55 AM 39.2 °F 34.2 °F 32.0 °F 75% 29.79 in 10.0 mi SE 6.9 mph - N/A   Overcast
4:15 AM 39.2 °F 33.0 °F 32.0 °F 75% 29.78 in 10.0 mi SSE 9.2 mph 19.6 mph N/A   Overcast
4:35 AM 39.2 °F 35.0 °F 32.0 °F 75% 29.78 in 10.0 mi SE 5.8 mph - N/A   Overcast
4:55 AM 39.2 °F 34.2 °F 32.0 °F 75% 29.77 in 10.0 mi SSE 6.9 mph - N/A   Overcast
5:15 AM 39.2 °F 32.5 °F 32.0 °F 75% 29.75 in 10.0 mi SSE 10.4 mph 18.4 mph N/A   Overcast
5:35 AM 39.2 °F 32.0 °F 32.0 °F 75% 29.74 in 10.0 mi South 11.5 mph 19.6 mph N/A   Mostly Cloudy
5:55 AM 39.2 °F 31.2 °F 32.0 °F 75% 29.73 in 10.0 mi SSE 13.8 mph 27.6 mph N/A   Mostly Cloudy
6:15 AM 39.2 °F 33.6 °F 32.0 °F 75% 29.73 in 7.0 mi South 8.1 mph 21.9 mph N/A Rain Light Rain
6:55 AM 37.4 °F 30.8 °F 33.8 °F 87% 29.70 in 3.0 mi SSE 9.2 mph 23.0 mph 0.02 in Rain Light Rain
7:15 AM 37.4 °F 30.3 °F 35.6 °F 93% 29.69 in 8.0 mi South 10.4 mph 18.4 mph N/A Rain Light Rain
7:35 AM 37.4 °F 29.3 °F 33.8 °F 87% 29.67 in 10.0 mi SSE 12.7 mph 25.3 mph N/A   Partly Cloudy
7:55 AM 39.2 °F 31.6 °F 32.0 °F 75% 29.65 in 10.0 mi SE 12.7 mph 23.0 mph N/A   Mostly Cloudy
8:15 AM 39.2 °F 31.6 °F 32.0 °F 75% 29.64 in 10.0 mi SSE 12.7 mph 24.2 mph N/A   Mostly Cloudy
8:35 AM 39.2 °F 32.0 °F 32.0 °F 75% 29.63 in 10.0 mi SSE 11.5 mph 29.9 mph N/A   Partly Cloudy
8:55 AM 39.2 °F 32.0 °F 32.0 °F 75% 29.62 in 10.0 mi SE 11.5 mph 18.4 mph N/A   Clear
9:35 AM 39.2 °F 33.0 °F 32.0 °F 75% 29.60 in 10.0 mi SSE 9.2 mph 20.7 mph N/A   Scattered Clouds
9:55 AM 39.2 °F 30.2 °F 32.0 °F 75% 29.59 in 10.0 mi SSE 17.3 mph 32.2 mph N/A   Overcast
10:15 AM 39.2 °F 30.8 °F 32.0 °F 75% 29.58 in 10.0 mi SE 15.0 mph 29.9 mph N/A   Overcast
10:35 AM 39.2 °F 31.6 °F 32.0 °F 75% 29.57 in 10.0 mi SSE 12.7 mph 28.8 mph N/A   Overcast
10:55 AM 39.2 °F 29.0 °F 32.0 °F 75% 29.55 in 10.0 mi SE 21.9 mph 35.7 mph N/A   Mostly Cloudy
11:15 AM 39.2 °F 31.2 °F 32.0 °F 75% 29.54 in 10.0 mi South 13.8 mph 38.0 mph N/A   Overcast
11:35 AM 39.2 °F 31.2 °F 32.0 °F 75% 29.53 in 10.0 mi SSE 13.8 mph 32.2 mph N/A   Mostly Cloudy
11:55 AM 39.2 °F 31.6 °F 32.0 °F 75% 29.51 in 10.0 mi South 12.7 mph 26.5 mph N/A   Scattered Clouds
12:15 PM 39.2 °F 30.8 °F 32.0 °F 75% 29.49 in 10.0 mi South 15.0 mph 26.5 mph N/A   Scattered Clouds
12:35 PM 39.2 °F 30.8 °F 32.0 °F 75% 29.47 in 10.0 mi South 15.0 mph 28.8 mph N/A   Partly Cloudy
12:55 PM 39.2 °F 30.5 °F 32.0 °F 75% 29.45 in 10.0 mi South 16.1 mph 32.2 mph N/A Rain Light Rain
1:15 PM 39.2 °F 31.2 °F 32.0 °F 75% 29.45 in 10.0 mi South 13.8 mph 26.5 mph N/A   Partly Cloudy
1:35 PM 41.0 °F 33.1 °F 32.0 °F 70% 29.46 in 10.0 mi South 15.0 mph 26.5 mph N/A   Partly Cloudy
1:55 PM 41.0 °F 33.9 °F 32.0 °F 70% 29.46 in 10.0 mi South 12.7 mph 25.3 mph N/A   Mostly Cloudy
2:15 PM 41.0 °F 35.2 °F 33.8 °F 76% 29.47 in 10.0 mi South 9.2 mph 20.7 mph N/A   Mostly Cloudy
2:35 PM 41.0 °F 34.3 °F 35.6 °F 81% 29.47 in 8.0 mi South 11.5 mph 23.0 mph N/A Rain Light Rain
2:55 PM 39.2 °F 33.6 °F 37.4 °F 93% 29.48 in 3.0 mi South 8.1 mph 23.0 mph N/A   Overcast
3:15 PM 39.2 °F 33.6 °F 37.4 °F 93% 29.46 in 5.0 mi South 8.1 mph 21.9 mph N/A Rain Light Rain
3:35 PM 39.2 °F 32.0 °F 37.4 °F 93% 29.47 in 9.0 mi South 11.5 mph 21.9 mph N/A   Overcast
3:55 PM 39.2 °F 32.5 °F 37.4 °F 93% 29.47 in 10.0 mi South 10.4 mph 16.1 mph N/A   Overcast
4:15 PM 41.0 °F 34.7 °F 37.4 °F 87% 29.48 in 10.0 mi South 10.4 mph 17.3 mph N/A   Overcast
4:35 PM 41.0 °F 35.8 °F 37.4 °F 87% 29.47 in 10.0 mi South 8.1 mph 18.4 mph N/A   Overcast
4:55 PM 41.0 °F 34.3 °F 37.4 °F 87% 29.48 in 10.0 mi South 11.5 mph 21.9 mph N/A   Overcast
5:15 PM 39.2 °F 33.0 °F 37.4 °F 93% 29.49 in 10.0 mi South 9.2 mph 17.3 mph N/A   Overcast
5:35 PM 39.2 °F 32.5 °F 37.4 °F 93% 29.49 in 4.0 mi South 10.4 mph 24.2 mph N/A   Overcast
5:55 PM 39.2 °F 32.5 °F 37.4 °F 93% 29.49 in 5.0 mi South 10.4 mph 19.6 mph N/A Rain Light Rain
6:15 PM 39.2 °F 32.0 °F 37.4 °F 93% 29.49 in 4.0 mi South 11.5 mph 17.3 mph 0.02 in   Overcast
6:35 PM 39.2 °F 32.0 °F 37.4 °F 93% 29.50 in 4.0 mi South 11.5 mph - 0.02 in Rain Light Rain
6:55 PM 39.2 °F 33.0 °F 37.4 °F 93% 29.50 in 5.0 mi South 9.2 mph 17.3 mph 0.03 in Rain Light Rain
7:15 PM 39.2 °F 31.2 °F 37.4 °F 93% 29.50 in 4.0 mi South 13.8 mph 19.6 mph 0.01 in Rain Light Rain
7:35 PM 39.2 °F 31.2 °F 37.4 °F 93% 29.51 in 8.0 mi South 13.8 mph 20.7 mph 0.03 in Rain Light Rain
7:55 PM 39.2 °F 33.6 °F 37.4 °F 93% 29.50 in 8.0 mi SSE 8.1 mph 18.4 mph 0.03 in Rain Light Rain
8:15 PM 39.2 °F 33.0 °F 37.4 °F 93% 29.51 in 10.0 mi South 9.2 mph 16.1 mph N/A   Overcast
8:35 PM 39.2 °F 32.0 °F 37.4 °F 93% 29.51 in 10.0 mi SSW 11.5 mph - N/A   Mostly Cloudy
8:55 PM 39.2 °F 33.6 °F 37.4 °F 93% 29.51 in 10.0 mi South 8.1 mph - N/A   Clear
9:35 PM 39.2 °F 32.5 °F 37.4 °F 93% 29.53 in 10.0 mi South 10.4 mph - N/A   Clear
9:55 PM 39.2 °F 35.9 °F 37.4 °F 93% 29.54 in 10.0 mi South 4.6 mph - N/A   Clear
10:15 PM 39.2 °F 33.6 °F 35.6 °F 87% 29.54 in 10.0 mi SSW 8.1 mph - N/A   Clear
10:35 PM 39.2 °F 32.0 °F 35.6 °F 87% 29.55 in 10.0 mi SSW 11.5 mph - N/A   Clear
10:55 PM 39.2 °F 33.0 °F 35.6 °F 87% 29.57 in 10.0 mi SSW 9.2 mph - N/A   Clear
11:15 PM 39.2 °F 35.0 °F 35.6 °F 87% 29.58 in 10.0 mi SSW 5.8 mph - N/A   Clear
11:35 PM 39.2 °F 35.9 °F 35.6 °F 87% 29.60 in 10.0 mi South 4.6 mph - N/A   Clear
11:55 PM 39.2 °F 35.9 °F 33.8 °F 81% 29.60 in 10.0 mi SSW 4.6 mph - N/A   Clear